リニア彗星

249P/LINEAR (2025)

English version
Home page
Updated on May 13, 2024

---------------------------------------------------------------------

・ プロフィール

・ 軌道要素

Epoch 2025 Feb. 14.0 TT = JDT 2460720.5                                         
T 2025 Feb. 1.69523 TT                                  Rudenko                 
q   0.4995033            (2000.0)            P               Q                  
n   0.21437452     Peri.   65.74327     +0.56215435     +0.81752262             
a   2.7649500      Node   239.04271     -0.80180459     +0.50167659             
e   0.8193446      Incl.    8.38537     -0.20271131     +0.28280269             
P   4.60                                                                        
From 808 observations 2006 Oct. 19-2021 Jan. 18, mean residual 0".7.            

・ 星図

・ 光度変化

        H = 16.5  G = 0.15                [   ,-80]  (              〜2024年11月13日)
        m1 = 15.5 + 5 logΔ + 16.0 log r  [-80, 76]  (2024年11月13日〜2025年 4月18日)
        H = 16.5  G = 0.15                [ 76,   ]  (2025年 4月18日〜              )

---------------------------------------------------------------------

軌道要素はM.P.E.C. 2021-B143に掲載されたものです。
星図はステラナビゲータ Ver.11 (アストロアーツ) で作成したものです。
光度グラフはComet for Windowsで作成したものです。

---------------------------------------------------------------------

Copyright(C) Seiichi Yoshida (comet@aerith.net). All rights reserved.